Hourly Data Report for May 22, 2012

All times are specified in Local Standard Time (LST). Add 1 hour to adjust for Daylight Saving Time where and when it is observed.

HAMILTON A
ONTARIO

43°10'25.000" N
79°56'06.000" W
237.70 m
6153193
71263
YHM

Download Data

Hourly Data (May 2012)
Hourly Data Report for May 22, 2012
Temp Definition
°C
Dew Point Temp Definition
°C
Rel Hum Definition
%
Wind Dir Definition
10's deg

Wind Spd Definition
km/h
Visibility Definition
km
Stn Press Definition
kPa
Hmdx Definition


Wind Chill Definition


Weather Definition


TIME
00:00 15.8 13.0 83 3 8 10.0 98.55     LegendNANA
01:00 14.4 12.6 89 6 10 10.0 98.51     Mainly Clear
02:00 14.2 12.4 89 4 10 10.0 98.48     LegendNANA
03:00 14.3 12.5 89 4 5 10.0 98.45     LegendNANA
04:00 12.9 12.3 96 27 8 10.0 98.47     Mostly Cloudy
05:00 12.8 12.5 98 30 9 10.0 98.49     LegendNANA
06:00 13.7 12.9 95 30 8 10.0 98.50     LegendNANA
07:00 15.1 12.6 85 31 12 10.0 98.52     Mostly Cloudy
08:00 16.8 13.2 79 34 9 10.0 98.52     LegendNANA
09:00 18.6 14.1 75 33 8 10.0 98.51     LegendNANA
10:00 20.0 14.7 71 34 8 10.0 98.52     Mostly Cloudy
11:00 21.8 14.8 64 2 8 10.0 98.49 26   LegendNANA
12:00 22.4 15.4 64 1 5 10.0 98.44 27   LegendNANA
13:00 23.2 15.6 62 34 5 10.0 98.40 28   Cloudy
14:00 23.3 16.2 64 2 5 10.0 98.36 28   LegendNANA
15:00 23.3 16.0 63 4 8 10.0 98.32 28   LegendNANA
16:00 22.6 15.3 63 10 10 10.0 98.30 27   Mostly Cloudy
17:00 22.4 16.5 69 16 18 10.0 98.30 27   LegendNANA
18:00 21.2 16.7 75 15 13 10.0 98.32 26   LegendNANA
19:00 20.1 15.6 75 8 8 10.0 98.35     Mostly Cloudy
20:00 18.6 15.9 84 9 8 10.0 98.37     LegendNANA
21:00 18.2 15.3 83 10 4 10.0 98.40     LegendNANA
22:00 18.9 15.8 82 2 13 10.0 98.45     Mostly Cloudy
23:00 17.3 15.0 86 35 6 10.0 98.48     LegendNANA

Notes on Data Quality.

Legend

  • E = Estimated
  • M = Missing
  • NA = Not Available
Date modified: